Location: South Tamworth Observatory
(43.8246°N, 71.3026°W)
Time: 08:16:01
(UTC-04:00)

Amateur Radio Satellites - All Passes

Search period start: 27 May 2016 07:46
Search period end: 28 May 2016 07:46
Location: South Tamworth Observatory, 43.8246°N, 71.3026°W

Satellite Date Start Highest point End Downlink Frequencies (MHz)
Time Altitude Azimuth
STRAND 1 27 May 07:48:36 07:53:21 39° 262° (W) 07:58:08 437.568
DOVE 4 27 May 07:48:38 07:52:57 49° 99° (E) 07:57:02 437.250
AIST 1 27 May 07:48:44 07:52:35 30° 74° (ENE) 07:56:24
LilacSat-2 27 May 07:56:17 07:59:30 27° 291° (WNW) 08:02:42 437.200
BRITE-PL 27 May 08:07:14 08:11:36 28° 295° (WNW) 08:15:40 437.365/2234.400
CUTE-I 27 May 08:09:22 08:14:12 35° 293° (WNW) 08:19:01 437.470
SO-50 27 May 08:12:27 08:16:23 25° 41° (NE) 08:20:12 436.795
CINEMA 3 27 May 08:23:40 08:27:29 34° 97° (E) 08:31:15 145.822/145.860
AO-85 27 May 08:30:22 08:34:07 19° 324° (NW) 08:37:47 145.980
CANX-2 27 May 08:31:26 08:35:35 46° 99° (E) 08:39:43 2200.000
GOMX 1 27 May 08:35:01 08:39:02 27° 294° (WNW) 08:42:48 467.674
SEEDS 27 May 08:35:29 08:39:21 33° 97° (E) 08:43:11 437.485
O/OREOS (USA 219) 27 May 08:35:29 08:37:36 13° 98° (E) 08:39:42 437.305
PRISM 27 May 08:39:13 08:43:15 52° 260° (W) 08:47:21 437.425
NOAA 18 27 May 08:58:11 09:00:55 14° 304° (NW) 09:03:39 137.9125
CUTE 1.7 + AOD 2 27 May 08:58:43 09:03:01 82° 103° (ESE) 09:07:19 437.475
Oscar 11 27 May 09:01:37 09:04:13 15° 91° (E) 09:06:49 145.826/435.025
AUBIESAT-1 27 May 09:03:15 09:06:34 77° 106° (ESE) 09:09:52 437.475
GONETS M04 27 May 09:03:52 09:12:35 72° 79° (E) 09:21:15
Cubesat XI-IV 27 May 09:04:33 09:07:06 14° 303° (WNW) 09:09:40 437.490
M-CUBED/EXP-1 PRIME 27 May 09:09:31 09:12:48 68° 290° (WNW) 09:16:02 437.505
ZACube-1 27 May 09:14:23 09:17:18 18° 92° (E) 09:20:15 437.345
CUBEBUG 2 27 May 09:16:44 09:20:40 40° 98° (E) 09:24:38 437.445
Cosmos 2499 27 May 09:20:12 09:28:39 59° 77° (ENE) 09:37:22 435.465 / 435.565
COMPASS 1 27 May 09:22:23 09:26:37 79° 101° (E) 09:30:50 437.405
AAUSAT CUBESAT 2 27 May 09:25:28 09:29:39 68° 101° (E) 09:33:50 437.432
AIST 1 27 May 09:26:32 09:30:03 24° 272° (W) 09:33:32
HO-68 27 May 09:26:53 09:34:04 78° 290° (WNW) 09:41:14 435.675
DOVE 4 27 May 09:27:25 09:30:14 17° 298° (WNW) 09:32:58 437.250
UNISAT 6 27 May 09:29:44 09:33:27 28° 68° (ENE) 09:37:08 437.425
TIGRISAT 27 May 09:37:18 09:41:10 32° 69° (ENE) 09:44:59 435.000
UWE-3 27 May 09:46:18 09:50:26 60° 101° (E) 09:54:37 435.000/436.395/437.385
PCSat 27 May 09:50:15 09:55:31 56° 115° (ESE) 10:00:50 145.827
FUNcube-1 27 May 09:51:57 09:55:57 43° 99° (E) 10:00:00 145.935
SO-50 27 May 09:52:35 09:57:10 52° 241° (WSW) 10:01:34 436.795
DELFI C3 27 May 10:00:04 10:03:40 30° 96° (E) 10:07:14 145.870
CINEMA 3 27 May 10:01:16 10:04:27 21° 294° (WNW) 10:07:36 145.822/145.860
CANX-2 27 May 10:08:13 10:11:06 18° 296° (WNW) 10:13:58 2200.000
ANTELSAT 27 May 10:10:14 10:14:35 75° 75° (ENE) 10:18:53 437.575/2403.000
SEEDS 27 May 10:11:30 10:14:53 24° 293° (WNW) 10:18:17 437.485
O/OREOS (USA 219) 27 May 10:11:53 10:16:25 66° 295° (WNW) 10:20:58 437.305
DUCHIFAT 1 27 May 10:19:24 10:22:07 17° 64° (ENE) 10:24:51 145.980
Oscar 11 27 May 10:36:26 10:40:39 51° 287° (WNW) 10:44:52 145.826/435.025
CUTE 1.7 + AOD 2 27 May 10:37:06 10:38:13 11° 300° (WNW) 10:39:19 437.475
BUGSAT 1 27 May 10:40:09 10:42:18 14° 62° (ENE) 10:44:26 437.445
CUSAT 1 27 May 10:47:34 10:52:37 24° 81° (E) 10:58:24 437.405
ZACube-1 27 May 10:49:51 10:53:46 40° 289° (WNW) 10:57:44 437.345
CUBEBUG 2 27 May 10:54:08 10:57:02 19° 295° (WNW) 10:59:56 437.445
JAS-2 27 May 10:54:35 10:59:30 19° 52° (NE) 11:04:32 435.910
POPSAT HIP 1 27 May 10:55:29 10:59:30 42° 71° (ENE) 11:03:30 437.405
QB50P1 27 May 10:55:55 10:59:56 44° 72° (ENE) 11:03:58 145.935-145.965
QB50P2 27 May 10:57:59 11:02:04 48° 72° (ENE) 11:06:10 145.880/145.840
COMPASS 1 27 May 11:00:21 11:01:33 11° 299° (WNW) 11:02:47 437.405
POLYITAN 1 27 May 11:00:26 11:04:32 49° 72° (ENE) 11:08:37 437.675
HUMSAT D 27 May 11:01:46 11:05:54 68° 101° (E) 11:10:05 437.325/437.525
GONETS M04 27 May 11:01:53 11:08:33 26° 280° (W) 11:15:13
AAUSAT CUBESAT 2 27 May 11:02:49 11:04:36 13° 298° (WNW) 11:06:24 437.432
UNISAT 6 27 May 11:06:23 11:10:08 28° 264° (W) 11:13:51 437.425
Cosmos 2499 27 May 11:13:58 11:21:21 34° 276° (W) 11:28:57 435.465 / 435.565
TIGRISAT 27 May 11:14:19 11:17:53 24° 265° (W) 11:21:25 435.000
NANOSAT C BR1 27 May 11:14:24 11:18:35 67° 75° (ENE) 11:22:48 145.865
HO-68 27 May 11:16:19 11:20:42 18° 309° (NW) 11:25:04 435.675
UWE-3 27 May 11:24:23 11:26:26 13° 298° (WNW) 11:28:30 435.000/436.395/437.385
FUNcube-1 27 May 11:29:05 11:31:54 18° 295° (WNW) 11:34:46 145.935
BEESAT 2 27 May 11:31:23 11:34:39 25° 114° (ESE) 11:37:56 435.950
PCSat 27 May 11:34:41 11:39:15 27° 315° (NW) 11:43:50 145.827
DELFI C3 27 May 11:35:10 11:38:23 23° 293° (WNW) 11:41:35 145.870
AISAT 27 May 11:35:23 11:38:43 21° 93° (E) 11:42:01 437.250
UKube-1 27 May 11:45:57 11:48:48 17° 92° (E) 11:51:37 .
ANTELSAT 27 May 11:51:10 11:51:48 10° 271° (W) 11:52:27 437.575/2403.000
DUCHIFAT 1 27 May 11:53:23 11:57:27 47° 260° (W) 12:01:33 145.980
BEESAT 3 27 May 12:06:09 12:10:05 80° 305° (NW) 12:14:03 437.485
ESTCUBE 1 27 May 12:11:07 12:15:41 70° 102° (ESE) 12:20:12 437.505/2401.250
BUGSAT 1 27 May 12:13:03 12:17:12 60° 259° (W) 12:21:21 437.445
DANDE 27 May 12:18:42 12:24:02 55° 92° (E) 12:31:00 436.750
50 SAT 27 May 12:18:53 12:22:37 69° 103° (ESE) 12:26:20 437.505
Oscar 19 27 May 12:20:15 12:24:36 27° 65° (ENE) 12:28:57 437.125/150
CUSAT 1 27 May 12:27:30 12:33:52 68° 284° (WNW) 12:41:38 437.405
CUBEBUG 1 27 May 12:28:57 12:33:22 76° 102° (ESE) 12:37:42 437.445
DX 1 27 May 12:30:51 12:35:12 63° 102° (ESE) 12:39:30 434.975-435.025
POPSAT HIP 1 27 May 12:32:35 12:35:29 18° 268° (W) 12:38:22 437.405
QB50P1 27 May 12:33:06 12:35:55 17° 268° (W) 12:38:46 145.935-145.965
VELOX 1 27 May 12:34:53 12:39:20 83° 102° (ESE) 12:43:45 145.980
QB50P2 27 May 12:35:34 12:38:08 16° 268° (W) 12:40:43 145.880/145.840
JAS-2 27 May 12:35:51 12:43:13 77° 72° (ENE) 12:51:05 435.910
POLYITAN 1 27 May 12:38:07 12:40:37 15° 269° (W) 12:43:07 437.675
HUMSAT D 27 May 12:39:19 12:41:00 12° 298° (WNW) 12:42:43 437.325/437.525
Gurwin Techsat 1B 27 May 12:40:51 12:44:31 19° 61° (ENE) 12:48:12 435.225
NANOSAT C BR1 27 May 12:53:27 12:54:46 11° 271° (W) 12:56:06 145.865
AO-7 27 May 12:56:35 13:00:12 14° 40° (NE) 13:03:49 29.400- 29.500
SPROUT 27 May 12:57:39 13:01:53 61° 101° (E) 13:06:04 437.525
ITAMSAT 1 27 May 13:03:40 13:05:48 13° 56° (NE) 13:07:55 435.822/435.867
BEESAT 2 27 May 13:08:44 13:12:22 33° 312° (NW) 13:16:02 435.950
AISAT 27 May 13:11:13 13:15:21 39° 290° (WNW) 13:19:26 437.250
UKube-1 27 May 13:20:56 13:25:05 46° 289° (WNW) 13:29:13 .
TISAT 1 27 May 13:23:22 13:27:07 31° 97° (E) 13:30:50 437.305
AIST 2 27 May 13:37:29 13:41:14 35° 116° (ESE) 13:45:01 435.215
AO-85 27 May 13:38:47 13:42:30 21° 38° (NE) 13:45:59 145.980
BEESAT 3 27 May 13:46:41 13:48:27 12° 324° (NW) 13:50:12 437.485
ESTCUBE 1 27 May 13:49:35 13:51:56 14° 299° (WNW) 13:54:16 437.505/2401.250
SWISSCUBE 27 May 13:56:38 13:59:40 17° 91° (E) 14:02:41 437.505
Oscar 19 27 May 13:58:49 14:03:43 41° 262° (W) 14:08:38 437.125/150
DANDE 27 May 14:02:33 14:07:29 27° 298° (WNW) 14:13:31 436.750
ITUPSAT 1 27 May 14:02:34 14:05:40 17° 91° (E) 14:08:45 437.325
CUBEBUG 1 27 May 14:07:16 14:09:02 12° 300° (WNW) 14:10:47 437.445
DX 1 27 May 14:08:32 14:10:52 14° 299° (WNW) 14:13:13 434.975-435.025
VELOX 1 27 May 14:13:40 14:15:08 12° 301° (WNW) 14:16:37 145.980
CUSAT 1 27 May 14:13:52 14:17:45 15° 307° (NW) 14:21:56 437.405
Cosmos 2491 27 May 14:18:24 14:26:16 35° 69° (ENE) 14:34:02 435.465 / 435.565
Gurwin Techsat 1B 27 May 14:18:43 14:23:58 64° 258° (WSW) 14:29:16 435.225
JAS-2 27 May 14:23:18 14:28:58 23° 272° (W) 14:34:56 435.910
BEESAT 27 May 14:25:32 14:29:41 28° 96° (E) 14:33:49 436.000
YUBILEINY 27 May 14:26:07 14:29:29 13° 72° (ENE) 14:32:49 435.215
SPROUT 27 May 14:35:08 14:37:21 14° 298° (WNW) 14:39:34 437.525
ITAMSAT 1 27 May 14:39:16 14:44:27 84° 75° (ENE) 14:49:39 435.822/435.867
AO-7 27 May 14:43:09 14:51:04 52° 63° (ENE) 14:59:03 29.400- 29.500
TISAT 1 27 May 14:59:18 15:02:38 24° 294° (WNW) 15:05:57 437.305
AIST 2 27 May 15:16:13 15:19:46 27° 315° (NW) 15:23:21 435.215
AO-85 27 May 15:18:49 15:23:28 62° 240° (WSW) 15:27:40 145.980
KKS-1 27 May 15:26:23 15:28:52 15° 91° (E) 15:31:20 437.445
SWISSCUBE 27 May 15:33:06 15:37:49 58° 288° (WNW) 15:42:31 437.505
RS-15 27 May 15:37:59 15:44:54 19° 96° (E) 15:51:59 29.354- 29.394
ITUPSAT 1 27 May 15:39:08 15:43:51 57° 288° (WNW) 15:48:33 437.325
MOZHAYETS 4 27 May 15:39:35 15:42:33 17° 91° (E) 15:45:28
HORYU 2 27 May 15:51:29 15:55:16 28° 67° (ENE) 15:59:02 437.375
STARS 27 May 16:02:17 16:05:16 18° 93° (E) 16:08:15 437.465
BEESAT 27 May 16:03:11 16:07:28 33° 293° (WNW) 16:11:45 436.000
Cosmos 2491 27 May 16:15:01 16:23:29 56° 270° (W) 16:31:53 435.465 / 435.565
YUBILEINY 27 May 16:15:55 16:24:29 68° 93° (E) 16:33:07 435.215
ITAMSAT 1 27 May 16:22:27 16:24:34 12° 272° (W) 16:26:42 435.822/435.867
AO-7 27 May 16:36:28 16:44:02 39° 262° (W) 16:51:41 29.400- 29.500
PCSat 27 May 16:54:45 16:57:30 14° 34° (NNE) 17:00:16 145.827
KKS-1 27 May 17:01:26 17:05:48 56° 288° (WNW) 17:10:07 437.445
NOAA 15 27 May 17:02:32 17:07:13 33° 66° (ENE) 17:11:56 137.62
NOAA 18 27 May 17:03:51 17:08:32 30° 64° (ENE) 17:13:13 137.9125
CUBESAT XI-V 27 May 17:04:35 17:07:19 15° 90° (E) 17:10:01 437.345
LilacSat-2 27 May 17:06:30 17:08:38 15° 65° (ENE) 17:10:46 437.200
Cubesat XI-IV 27 May 17:07:16 17:11:31 25° 63° (ENE) 17:15:49 437.490
MOZHAYETS 4 27 May 17:15:30 17:20:02 54° 287° (WNW) 17:24:32
Cosmos 2504 27 May 17:24:34 17:31:28 51° 90° (E) 17:38:45 435.465 / 435.565
HORYU 2 27 May 17:27:55 17:31:45 29° 264° (W) 17:35:37 437.375
STARS 27 May 17:37:42 17:41:51 44° 289° (WNW) 17:46:00 437.465
BRITE-PL 27 May 17:39:08 17:44:35 52° 71° (ENE) 17:50:06 437.365/2234.400
RS-15 27 May 17:43:48 17:55:05 76° 119° (ESE) 18:07:03 29.354- 29.394
CUTE-I 27 May 17:52:24 17:57:36 61° 72° (ENE) 18:02:51 437.470
GOMX 1 27 May 18:04:50 18:10:00 44° 71° (ENE) 18:15:05 467.674
HO-68 27 May 18:11:47 18:16:37 20° 53° (NE) 18:21:27 435.675
YUBILEINY 27 May 18:14:50 18:22:02 28° 295° (WNW) 18:29:18 435.215
AUBIESAT-1 27 May 18:18:21 18:20:08 13° 58° (ENE) 18:21:52 437.475
M-CUBED/EXP-1 PRIME 27 May 18:23:52 18:26:38 18° 61° (ENE) 18:29:16 437.505
PCSat 27 May 18:36:41 18:42:05 60° 56° (NE) 18:47:26 145.827
LilacSat-2 27 May 18:38:56 18:42:35 44° 261° (W) 18:46:14 437.200
CUBESAT XI-V 27 May 18:40:26 18:45:06 61° 287° (WNW) 18:49:43 437.345
O/OREOS (USA 219) 27 May 18:41:35 18:45:39 32° 58° (ENE) 18:49:40 437.305
NOAA 15 27 May 18:42:06 18:46:56 35° 263° (W) 18:51:47 137.62
NOAA 18 27 May 18:43:55 18:49:02 40° 262° (W) 18:54:10 137.9125
BEESAT 3 27 May 18:45:53 18:47:56 14° 37° (NE) 18:49:59 437.485
Cubesat XI-IV 27 May 18:46:14 18:51:19 47° 261° (W) 18:56:27 437.490
DOVE 4 27 May 18:54:12 18:59:21 62° 74° (ENE) 19:04:19 437.250
BRITE-PL 27 May 19:18:43 19:23:16 25° 268° (W) 19:27:54 437.365/2234.400
Cosmos 2504 27 May 19:18:50 19:25:10 32° 292° (WNW) 19:31:52 435.465 / 435.565
CANX-2 27 May 19:25:26 19:29:19 38° 71° (ENE) 19:33:15 2200.000
CINEMA 3 27 May 19:26:02 19:30:27 40° 71° (ENE) 19:34:40 145.822/145.860
SEEDS 27 May 19:28:39 19:32:10 27° 68° (ENE) 19:35:43 437.485
CUTE-I 27 May 19:34:28 19:38:04 18° 269° (W) 19:41:42 437.470
GOMX 1 27 May 19:43:35 19:48:11 27° 267° (W) 19:52:44 467.674
BEESAT 2 27 May 19:47:44 19:51:08 26° 45° (NE) 19:54:32 435.950
AUBIESAT-1 27 May 19:50:10 19:54:16 64° 253° (WSW) 19:58:04 437.475
CUTE 1.7 + AOD 2 27 May 19:52:22 19:56:32 67° 75° (ENE) 20:00:45 437.475
HO-68 27 May 19:56:14 20:03:24 89° 73° (ENE) 20:10:35 435.675
M-CUBED/EXP-1 PRIME 27 May 19:56:57 20:00:58 44° 255° (WSW) 20:04:43 437.505
STRAND 1 27 May 19:57:10 20:02:17 63° 102° (ESE) 20:07:24 437.568
RS-15 27 May 19:57:53 20:08:40 42° 326° (NW) 20:20:03 29.354- 29.394
Oscar 11 27 May 19:58:11 20:00:38 15° 63° (ENE) 20:03:07 145.826/435.025
ZACube-1 27 May 20:11:56 20:14:46 18° 65° (ENE) 20:17:35 437.345
COMPASS 1 27 May 20:14:08 20:18:13 60° 74° (ENE) 20:22:20 437.405
GONETS M04 27 May 20:14:42 20:19:24 16° 74° (ENE) 20:24:06
CUBEBUG 2 27 May 20:15:58 20:20:03 41° 71° (ENE) 20:24:03 437.445
AAUSAT CUBESAT 2 27 May 20:16:45 20:20:45 51° 73° (ENE) 20:24:48 437.432
PRISM 27 May 20:20:10 20:23:10 19° 93° (E) 20:26:08 437.425
AIST 1 27 May 20:20:24 20:23:15 17° 86° (E) 20:26:06
PCSat 27 May 20:21:01 20:25:00 21° 254° (WSW) 20:28:59 145.827
O/OREOS (USA 219) 27 May 20:21:10 20:24:56 27° 256° (WSW) 20:28:40 437.305
BEESAT 3 27 May 20:22:15 20:26:13 90° 308° (NW) 20:30:10 437.485
DOVE 4 27 May 20:33:58 20:37:22 17° 269° (W) 20:40:43 437.250
ISS 27 May 20:40:02 20:41:52 14° 132° (SE) 20:43:43 145.825
UWE-3 27 May 20:44:22 20:48:36 57° 73° (ENE) 20:52:44 435.000/436.395/437.385
DELFI C3 27 May 20:47:43 20:50:46 22° 67° (ENE) 20:53:51 145.870
FUNcube-1 27 May 20:48:43 20:52:40 39° 71° (ENE) 20:56:33 145.935
CANX-2 27 May 21:02:18 21:05:20 19° 268° (W) 21:08:23 2200.000
CINEMA 3 27 May 21:04:00 21:07:41 22° 266° (W) 21:11:16 145.822/145.860
SEEDS 27 May 21:04:16 21:07:49 27° 265° (W) 21:11:25 437.485
DANDE 27 May 21:14:52 21:18:58 14° 52° (NE) 21:22:57 436.750
CUSAT 1 27 May 21:20:14 21:26:13 23° 60° (ENE) 21:31:35 437.405
BEESAT 2 27 May 21:25:25 21:29:02 34° 244° (WSW) 21:32:38 435.950
CUTE 1.7 + AOD 2 27 May 21:31:36 21:32:51 11° 272° (W) 21:34:05 437.475
Oscar 11 27 May 21:32:07 21:36:19 57° 260° (W) 21:40:35 145.826/435.025
STRAND 1 27 May 21:37:29 21:40:58 19° 299° (WNW) 21:44:27 437.568
ZACube-1 27 May 21:46:44 21:50:46 43° 261° (W) 21:54:47 437.345
HO-68 27 May 21:47:34 21:52:00 17° 271° (W) 21:56:28 435.675
COMPASS 1 27 May 21:52:33 21:54:11 12° 271° (W) 21:55:49 437.405
CUBEBUG 2 27 May 21:53:44 21:56:50 19° 267° (W) 21:59:55 437.445
HUMSAT D 27 May 21:54:11 21:58:09 54° 73° (ENE) 22:02:09 437.325/437.525
AAUSAT CUBESAT 2 27 May 21:54:23 21:56:34 14° 270° (W) 21:58:46 437.432
PRISM 27 May 21:54:43 21:58:38 39° 290° (WNW) 22:02:30 437.425
AIST 1 27 May 21:56:16 22:00:28 44° 283° (WNW) 22:04:42
AIST 2 27 May 21:57:19 22:01:11 37° 49° (NE) 22:05:03 435.215
Cosmos 2499 27 May 21:59:09 22:05:50 42° 87° (E) 22:12:59 435.465 / 435.565
PHONESAT 2.4 27 May 22:00:26 22:02:28 16° 155° (SSE) 22:04:30 2401.200-2431.200
VELOX 1 27 May 22:01:10 22:01:50 10° 58° (ENE) 22:02:30 145.980
ANTELSAT 27 May 22:01:57 22:04:07 14° 91° (E) 22:06:18 437.575/2403.000
GONETS M04 27 May 22:05:56 22:14:42 79° 95° (E) 22:23:29
ISS 27 May 22:14:39 22:17:56 78° 331° (NNW) 22:21:12 145.825
RS-15 27 May 22:15:51 22:25:34 27° 360° (N) 22:35:32 29.354- 29.394
DELFI C3 27 May 22:21:56 22:25:28 31° 264° (W) 22:29:03 145.870
UWE-3 27 May 22:23:20 22:25:23 13° 269° (W) 22:27:27 435.000/436.395/437.385
FUNcube-1 27 May 22:26:08 22:29:04 18° 267° (W) 22:32:00 145.935
AISAT 27 May 22:34:02 22:37:33 23° 65° (ENE) 22:41:04 437.250
UKube-1 27 May 22:41:56 22:44:55 18° 63° (ENE) 22:47:54 .
DANDE 27 May 22:55:29 23:03:48 57° 74° (ENE) 23:11:24 436.750
UNISAT 6 27 May 22:55:43 22:59:55 51° 100° (E) 23:04:10 437.425
50 SAT 27 May 22:58:26 23:01:47 36° 71° (ENE) 23:05:10 437.505
CUSAT 1 27 May 23:01:32 23:09:25 80° 262° (W) 23:15:56 437.405
TIGRISAT 27 May 23:03:13 23:07:27 58° 101° (E) 23:11:44 435.000
ESTCUBE 1 27 May 23:11:38 23:16:07 74° 75° (ENE) 23:20:40 437.505/2401.250
CUBEBUG 1 27 May 23:25:45 23:30:11 73° 75° (ENE) 23:34:37 437.445
DX 1 27 May 23:27:18 23:31:38 64° 73° (ENE) 23:36:00 434.975-435.025
HUMSAT D 27 May 23:32:13 23:34:07 13° 270° (W) 23:36:02 437.325/437.525
VELOX 1 27 May 23:33:06 23:37:33 86° 78° (ENE) 23:42:03 145.980
PHONESAT 2.4 27 May 23:35:48 23:38:46 39° 171° (S) 23:41:44 2401.200-2431.200
AIST 2 27 May 23:36:07 23:39:30 24° 246° (WSW) 23:42:52 435.215
DUCHIFAT 1 27 May 23:36:33 23:39:53 23° 94° (E) 23:43:14 145.980
ANTELSAT 27 May 23:36:58 23:41:12 58° 286° (WNW) 23:45:28 437.575/2403.000
JAS-2 27 May 23:49:26 23:50:40 10° 79° (E) 23:51:53 435.910
ISS 27 May 23:52:02 23:54:45 24° 348° (NNW) 23:57:29 145.825
SPROUT 27 May 23:52:13 23:56:25 54° 73° (ENE) 00:00:37 437.525
Cosmos 2499 27 May 23:52:13 23:58:58 39° 289° (WNW) 00:06:13 435.465 / 435.565
BUGSAT 1 27 May 23:54:36 23:57:13 17° 92° (E) 23:59:49 437.445
GONETS M04 28 May 00:05:40 00:12:31 25° 297° (WNW) 00:19:24
SO-50 28 May 00:07:32 00:12:02 38° 116° (ESE) 00:16:34 436.795
AISAT 28 May 00:09:39 00:13:49 38° 262° (W) 00:18:00 437.250
POPSAT HIP 1 28 May 00:14:19 00:18:30 67° 101° (E) 00:22:40 437.405
QB50P1 28 May 00:14:41 00:18:53 68° 102° (ESE) 00:23:04 145.935-145.965
TISAT 1 28 May 00:16:18 00:19:56 29° 68° (ENE) 00:23:35 437.305
UKube-1 28 May 00:16:27 00:20:37 46° 260° (W) 00:24:50 .
QB50P2 28 May 00:17:03 00:21:17 77° 103° (ESE) 00:25:29 145.880/145.840
POLYITAN 1 28 May 00:19:30 00:23:44 79° 104° (ESE) 00:27:55 437.675
RS-15 28 May 00:31:11 00:42:34 41° 34° (NNE) 00:54:01 29.354- 29.394
NANOSAT C BR1 28 May 00:33:02 00:37:14 78° 285° (WNW) 00:41:24 145.865
50 SAT 28 May 00:33:29 00:35:40 15° 268° (W) 00:37:52 437.505
UNISAT 6 28 May 00:33:34 00:36:16 17° 297° (WNW) 00:39:00 437.425
DANDE 28 May 00:38:52 00:46:18 36° 274° (W) 00:53:08 436.750
TIGRISAT 28 May 00:41:19 00:43:43 15° 297° (WNW) 00:46:07 435.000
CUSAT 1 28 May 00:45:57 00:50:01 16° 284° (WNW) 00:53:48 437.405
ESTCUBE 1 28 May 00:51:59 00:53:28 11° 272° (W) 00:54:57 437.505/2401.250
SWISSCUBE 28 May 01:04:14 01:07:56 23° 64° (ENE) 01:11:39 437.505
CUBEBUG 1 28 May 01:05:34 01:06:58 11° 271° (W) 01:08:22 437.445
DX 1 28 May 01:06:18 01:08:15 13° 270° (W) 01:10:12 434.975-435.025
ITUPSAT 1 28 May 01:10:28 01:14:13 24° 64° (ENE) 01:17:58 437.325
DUCHIFAT 1 28 May 01:11:56 01:15:38 31° 291° (WNW) 01:19:19 145.980
PHONESAT 2.4 28 May 01:12:17 01:15:16 40° 188° (S) 01:18:14 2401.200-2431.200
BUGSAT 1 28 May 01:29:00 01:32:49 41° 289° (WNW) 01:36:35 437.445
ISS 28 May 01:29:19 01:31:57 22° 9° (N) 01:34:34 145.825
JAS-2 28 May 01:29:52 01:37:20 64° 100° (E) 01:43:59 435.910
SPROUT 28 May 01:30:20 01:32:42 14° 269° (W) 01:35:03 437.525
BEESAT 28 May 01:33:06 01:37:29 38° 68° (ENE) 01:41:52 436.000
SO-50 28 May 01:48:07 01:52:35 34° 315° (NW) 01:57:02 436.795
POPSAT HIP 1 28 May 01:51:54 01:53:45 13° 299° (WNW) 01:55:36 437.405
TISAT 1 28 May 01:52:00 01:55:34 26° 265° (W) 01:59:08 437.305
QB50P1 28 May 01:52:22 01:54:06 12° 299° (WNW) 01:55:52 145.935-145.965
QB50P2 28 May 01:55:11 01:56:28 11° 300° (WNW) 01:57:45 145.880/145.840
POLYITAN 1 28 May 01:57:46 01:58:55 11° 300° (WNW) 02:00:04 437.675
Oscar 19 28 May 02:08:35 02:13:44 63° 102° (ESE) 02:18:49 437.125/150
YUBILEINY 28 May 02:24:31 02:32:27 36° 69° (ENE) 02:40:21 435.215
KKS-1 28 May 02:25:45 02:28:41 18° 63° (ENE) 02:31:37 437.445
Gurwin Techsat 1B 28 May 02:33:31 02:38:40 46° 99° (E) 02:43:44 435.225
SWISSCUBE 28 May 02:40:59 02:45:28 42° 261° (W) 02:50:02 437.505
MOZHAYETS 4 28 May 02:42:56 02:46:07 19° 64° (ENE) 02:49:20
RS-15 28 May 02:44:05 02:56:25 81° 240° (WSW) 03:08:41 29.354- 29.394
AO-7 28 May 02:45:57 02:49:24 13° 86° (E) 02:52:47 29.400- 29.500
ITUPSAT 1 28 May 02:47:19 02:51:49 41° 262° (W) 02:56:21 437.325
PHONESAT 2.4 28 May 02:49:23 02:51:35 18° 204° (SSW) 02:53:46 2401.200-2431.200
ITAMSAT 1 28 May 02:51:13 02:55:36 26° 95° (E) 02:59:57 435.822/435.867
STARS 28 May 03:00:16 03:03:29 20° 64° (ENE) 03:06:43 437.465
ISS 28 May 03:05:38 03:08:52 58° 28° (NNE) 03:12:05 145.825
BEESAT 28 May 03:11:30 03:15:22 24° 266° (W) 03:19:15 436.000
Cosmos 2504 28 May 03:14:35 03:20:56 23° 63° (ENE) 03:27:29 435.465 / 435.565
JAS-2 28 May 03:15:32 03:21:44 29° 301° (WNW) 03:27:29 435.910
Cosmos 2491 28 May 03:21:31 03:29:23 38° 85° (E) 03:37:14 435.465 / 435.565
Oscar 19 28 May 03:49:03 03:52:33 19° 299° (WNW) 03:56:02 437.125/150
KKS-1 28 May 04:00:29 04:04:51 52° 259° (W) 04:09:14 437.445
CUBESAT XI-V 28 May 04:09:12 04:12:22 18° 63° (ENE) 04:15:34 437.345
Gurwin Techsat 1B 28 May 04:14:02 04:18:20 26° 297° (WNW) 04:22:38 435.225
MOZHAYETS 4 28 May 04:18:32 04:22:56 48° 261° (W) 04:27:23
YUBILEINY 28 May 04:21:09 04:29:33 54° 270° (W) 04:37:59 435.215
ITAMSAT 1 28 May 04:30:17 04:35:11 41° 292° (WNW) 04:40:03 435.822/435.867
AO-7 28 May 04:35:17 04:43:39 68° 105° (ESE) 04:51:59 29.400- 29.500
STARS 28 May 04:35:23 04:39:34 42° 261° (W) 04:43:47 437.465
ISS 28 May 04:42:36 04:45:04 20° 225° (SW) 04:47:30 145.825
RS-15 28 May 04:58:37 05:06:57 22° 262° (W) 05:15:17 29.354- 29.394
Cosmos 2504 28 May 05:06:51 05:15:18 85° 265° (W) 05:24:10 435.465 / 435.565
HORYU 2 28 May 05:16:43 05:20:59 45° 99° (E) 05:25:14 437.375
Cosmos 2491 28 May 05:17:26 05:25:57 51° 285° (WNW) 05:34:31 435.465 / 435.565
AO-85 28 May 05:33:15 05:38:11 36° 115° (ESE) 05:43:04 145.980
STRAND 1 28 May 05:38:10 05:40:57 15° 58° (ENE) 05:43:44 437.568
CUBESAT XI-V 28 May 05:44:46 05:49:20 54° 260° (W) 05:53:57 437.345
BRITE-PL 28 May 05:44:57 05:47:37 14° 86° (E) 05:50:09 437.365/2234.400
CUTE-I 28 May 06:08:44 06:12:48 22° 92° (E) 06:16:52 437.470
LilacSat-2 28 May 06:11:44 06:14:13 17° 92° (E) 06:16:43 437.200
AO-7 28 May 06:28:49 06:35:50 32° 305° (NW) 06:42:52 29.400- 29.500
HORYU 2 28 May 06:54:04 06:57:13 19° 297° (WNW) 07:00:23 437.375
DOVE 4 28 May 06:54:05 06:56:04 13° 88° (E) 06:57:59 437.250
NOAA 15 28 May 06:55:11 07:00:31 79° 103° (ESE) 07:05:48 137.62
SO-50 28 May 06:58:47 07:00:32 12° 28° (NNE) 07:02:15 436.795
Cubesat XI-IV 28 May 07:01:41 07:07:01 63° 102° (ESE) 07:12:20 437.490
Cosmos 2504 28 May 07:02:17 07:07:30 18° 283° (WNW) 07:12:53 435.465 / 435.565
NOAA 18 28 May 07:03:58 07:09:28 77° 103° (ESE) 07:14:58 137.9125
PRISM 28 May 07:11:15 07:14:02 18° 64° (ENE) 07:16:49 437.425
AO-85 28 May 07:13:33 07:18:41 41° 313° (NW) 07:23:41 145.980
STRAND 1 28 May 07:14:21 07:19:27 80° 256° (WSW) 07:24:36 437.568
BRITE-PL 28 May 07:21:36 07:26:45 69° 286° (WNW) 07:31:27 437.365/2234.400
Cosmos 2491 28 May 07:23:51 07:25:23 10° 311° (NW) 07:26:55 435.465 / 435.565
HO-68 28 May 07:24:33 07:28:27 15° 88° (E) 07:32:19 435.675
CUTE 1.7 + AOD 2 28 May 07:38:30 07:39:29 11° 88° (E) 07:40:28 437.475
